Home > Weather > Bingen am Rhein > Past weeks

Flag for Germany Weather for the Past 2 Weeks in Bingen am Rhein, Rhineland-Palatinate, Germany

Now
46 °F

Sunny.


Feels Like: 40 °F
Forecast: 41 / 66 °F
Wind: 14 mph from North

Location: Wiesbaden Airport

Current Time: May 1, 2016 at 9:18:22 AM

Latest Report: May 1, 2016 at 7:58 AM


Visibility: N/A

Pressure: 30.11 "Hg

Humidity: 77%

Dew Point: 39 °F

Location of Bingen am RheinLocation

Historic Weather in Bingen am Rhein — Graph

°F

Bingen am Rhein Temperature Yesterday

Maximum temperature yesterday: 61 °F (at 3:58 PM)
Minimum temperature yesterday: 36 °F (at 5:58 AM)
Average temperature yesterday: 49 °F

High & Low Weather Summary for the Past Weeks

 TemperatureHumidityPressure
High67 °F (Apr 21, 5:58 PM)100% (Apr 16, 7:58 AM)30.46 "Hg (Apr 16, 7:58 AM)
Low31 °F (Apr 24, 6:58 AM)27% (Apr 20, 3:58 PM)29.58 "Hg (Apr 26, 1:03 AM)
Average46 °F66%29.99 "Hg
* Reported Apr 16 7:58 AM — May 1 6:58 AM, Bingen am Rhein, Weather by CustomWeather, © 2016

Note: Actual official high and low records may vary slightly from our data, if they occured in-between our weather recording intervals... More about our weather records

Advertising

Bingen am Rhein Weather History for the Previous 24 Hours

Scroll right to see more
 ConditionsComfort  
Time TempWeatherWind HumidityBarometerVisibility
6:58 AM
Sun, May 1
45 °FClear.12 mph81%30.09 "HgN/A
5:58 AM45 °FPassing clouds.15 mph81%30.08 "HgN/A
4:58 AM45 °FClear.10 mph81%30.07 "HgN/A
3:58 AM45 °FClear.10 mph82%30.07 "HgN/A
2:58 AM46 °FPassing clouds.13 mph82%30.06 "HgN/A
1:58 AM45 °FPassing clouds.13 mph86%30.05 "HgN/A
12:58 AM45 °FHeavy rain. Fog.6 mph87%30.08 "Hg6 mi
11:58 PM
Sat, Apr 30
46 °FLight rain. Overcast.10 mph82%30.05 "HgN/A
10:58 PM48 °FLight rain. Passing clouds.15 mph76%30.04 "HgN/A
9:58 PM52 °FClear.10 mph67%30.04 "HgN/A
8:58 PM52 °FPassing clouds.8 mph67%30.02 "HgN/A
7:58 PM53 °FSunny.12 mph60%30.00 "HgN/A
6:58 PM54 °FPassing clouds.14 mph59%30.01 "HgN/A
5:58 PM56 °FScattered clouds.14 mph56%30.01 "HgN/A
4:58 PM59 °FBroken clouds.14 mph49%30.00 "HgN/A
3:58 PM61 °FBroken clouds.7 mph35%29.99 "HgN/A
2:58 PM59 °FScattered clouds.1 mph39%30.01 "HgN/A
1:58 PM59 °FPartly sunny.5 mph44%30.01 "HgN/A
12:58 PM56 °FMostly cloudy.6 mph47%30.03 "HgN/A
11:58 AM55 °FPassing clouds.5 mph55%30.04 "HgN/A
10:58 AM52 °FScattered clouds.1 mph57%30.04 "HgN/A
9:58 AM48 °FSunny.2 mph67%30.04 "HgN/A
Weather by CustomWeather, © 2016

See weather overviewHow to use our weather pages